Location: Jetmore
(38.0845°N, 99.8935°W)
Time: 20:10:06
(UTC+00:00)

Cosmos 2292 Rocket - Pass Details

Date: 29 October 2020
Orbit: 381 x 1451 km, 83.0° (Epoch: 30 November)

Event Time Altitude Azimuth Distance (km) Brightness Sun altitude
Rises 12:02:43 0° 174° (S) 2,261 6.6 -12.4°
Reaches altitude 10° 12:04:35 10° 169° (S) 1,449 5.7 -12.0°
Maximum altitude 12:07:34 50° 92° (E) 566 3.9 -11.4°
Drops below altitude 10° 12:11:07 10° 16° (NNE) 1,729 6.0 -10.8°
Sets 12:13:32 0° 12° (NNE) 2,770 6.9 -10.3°
